GAOFEN-12 01

Last updated on Wed Sep 17 2025 00:02:31 GMT+0000 (Coordinated Universal Time)

1 44819U 19082A 25259.62948426 .00000437 00000+0 63748-4 0 9995 2 44819 97.8155 268.1802 0003145 146.4263 213.7150 14.80499156313619
UTC large
Height (km)
Speed (km/s)
/
Latitude / Longitude
Inclination (degrees)
Orbital Period (minutes)
Azimuth
Elevation
Range (km)
Doppler Factor

Next 0 passes for location: London (51.5072 / 0.1276)

Sorry there are no passes over London.